Regional Weather Roundup
Issued by NWS Little Rock, AR

Home | Current Version | Previous Version | Graphics & Text | Print | Product List | Glossary On
Versions: 1 2 3 4 5 6 7 8 9 10 11 12 13 14 15 16 17 18 19 20 21 22 23 24 25 26 27 28 29 30 31 32 33
000
ASUS44 KLZK 240605
RWRLZK

WEATHER ROUNDUP FOR ARKANSAS
NATIONAL WEATHER SERVICE LITTLE ROCK AR
100 AM CDT MON APR 24 2017

NOTE: "FAIR" INDICATES FEW OR NO CLOUDS BELOW 12,000 FEET WITH NO
SIGNIFICANT WEATHER AND/OR OBSTRUCTIONS TO VISIBILITY.

ARZ001-003-010-029-240700-
NORTHWEST ARKANSAS

CITY           SKY/WX    TMP DP  RH WIND       PRES   REMARKS
FAYETTEVILLE   CLEAR     40  40 100 S3        30.00R
6HR MIN TEMP:  40; 6HR MAX TEMP:  66;

FORT SMITH     CLEAR     51  45  79 W7        29.97R
6HR MIN TEMP:  49; 6HR MAX TEMP:  71;

HARRISON       CLEAR     50  36  58 CALM      29.97S
6HR MIN TEMP:  44; 6HR MAX TEMP:  66;

BENTONVILLE    CLEAR     46  41  81 CALM      29.99S
6HR MIN TEMP:  45; 6HR MAX TEMP:  64;

ROGERS         PTCLDY    45  40  82 CALM      30.00R
6HR MIN TEMP:  42; 6HR MAX TEMP:  64;

SILOAM SPGS    CLEAR     45  39  81 CALM      29.99S
6HR MIN TEMP:  45; 6HR MAX TEMP:  63;

HIGHFILL       CLEAR     43  39  86 S3        29.99R
6HR MIN TEMP:  43; 6HR MAX TEMP:  65;

$$

ARZ004-005-016-240700-
NORTH CENTRAL ARKANSAS

CITY           SKY/WX    TMP DP  RH WIND       PRES   REMARKS
BATESVILLE     CLEAR    N/A N/A N/A W5        29.94F
FLIPPIN        CLEAR     45  37  76 CALM      29.94S
6HR MIN TEMP:  45; 6HR MAX TEMP:  70;

MTN HOME       CLEAR     52  35  52 E5        29.95
6HR MIN TEMP:  48; 6HR MAX TEMP:  68;

$$

ARZ040-041-240700-
WEST CENTRAL ARKANSAS

CITY           SKY/WX    TMP DP  RH WIND       PRES   REMARKS
MENA           CLEAR     50  46  87 W5        29.96S
MOUNT IDA      CLEAR     45  43  93 CALM      29.91F
6HR MIN TEMP:  45; 6HR MAX TEMP:  70;

$$

ARZ009-017-025-026-028-240700-
NORTHEAST ARKANSAS

CITY           SKY/WX    TMP DP  RH WIND       PRES   REMARKS
JONESBORO      CLEAR     56  39  53 N8        29.91F
6HR MIN TEMP:  51; 6HR MAX TEMP:  65;

NEWPORT        CLEAR     50  46  86 NW8       29.93F
6HR MIN TEMP:  50; 6HR MAX TEMP:  66;

WALNUT RIDGE   CLEAR     52  37  58 NW9       29.93S
6HR MIN TEMP:  52; 6HR MAX TEMP:  66;

BLYTHEVILLE    CLEAR     50  46  86 N5        29.90F
6HR MIN TEMP:  50; 6HR MAX TEMP:  63;

$$

ARZ022-023-033-042-044-240700-
CENTRAL ARKANSAS

CITY           SKY/WX    TMP DP  RH WIND       PRES   REMARKS
LITTLE ROCK    CLEAR     53  45  74 CALM      29.94F
6HR MIN TEMP:  49; 6HR MAX TEMP:  69;

N LITTLE ROCK    N/A     52  41  65 CALM      29.94F
6HR MIN TEMP:  52; 6HR MAX TEMP:  68;

JACKSONVILLE   CLEAR     46  44  93 CALM      29.93F
6HR MIN TEMP:  46; 6HR MAX TEMP:  71;

CONWAY           N/A     50  46  87 CALM      29.93F
SEARCY         CLEAR     46  45  96 NW3       29.95F
6HR MIN TEMP:  46; 6HR MAX TEMP:  70;

HOT SPRINGS    CLEAR     50  48  93 NW5       29.94F
6HR MIN TEMP:  49; 6HR MAX TEMP:  71;

RUSSELLVILLE   CLEAR     46  43  89 CALM      29.92F
6HR MIN TEMP:  46; 6HR MAX TEMP:  71;

$$

ARZ036-240700-
EAST ARKANSAS

CITY           SKY/WX    TMP DP  RH WIND       PRES   REMARKS
WEST MEMPHIS   CLEAR     53  46  77 NW3       29.88F
6HR MIN TEMP:  51; 6HR MAX TEMP:  61;

$$

ARZ050-053-066-070-073-240700-
SOUTHWEST ARKANSAS

CITY           SKY/WX    TMP DP  RH WIND       PRES   REMARKS
ARKADELPHIA    FAIR      48  47  96 SW3       29.94F
6HR MIN TEMP:  48; 6HR MAX TEMP:  70;

CAMDEN         CLEAR     48  45  87 CALM      29.94F
TEXARKANA      CLEAR     50  46  86 CALM      29.95F
6HR MIN TEMP:  49; 6HR MAX TEMP:  70;

EL DORADO      CLEAR     48  46  93 CALM      29.94F
6HR MIN TEMP:  48; 6HR MAX TEMP:  68;

DE QUEEN       CLEAR     47  47 100 CALM      29.94F FOG
6HR MIN TEMP:  47; 6HR MAX TEMP:  71;

$$

ARZ056-057-069-240700-
SOUTHEAST ARKANSAS

CITY           SKY/WX    TMP DP  RH WIND       PRES   REMARKS
PINE BLUFF     CLEAR     51  49  92 CALM      29.93F
6HR MIN TEMP:  51; 6HR MAX TEMP:  67;

STUTTGART      CLEAR     54  41  62 W5        29.93F
6HR MIN TEMP:  54; 6HR MAX TEMP:  66;

MONTICELLO     CLEAR     49  46  90 CALM      29.93F
6HR MIN TEMP:  48; 6HR MAX TEMP:  67;


$$






USA.gov is the U.S. government's official web portal to all federal, state and local government web resources and services.